Change the Weather History Date:

Tuesday, November 22, 2011

  Actual Average Record
Temperature  
Mean Temperature 76 °F -  
Max Temperature 82 °F 74 °F 86 °F (1948)
Min Temperature 68 °F 59 °F 43 °F (2000)
Cooling Degree Days 11    
Growing Degree Days 26 (Base 50)    
Moisture  
Dew Point 68 °F    
Average Humidity 81    
Maximum Humidity 94    
Minimum Humidity 62    
Precipitation  
Precipitation 0.00 in - - ()
Sea Level Pressure  
Sea Level Pressure 30.12 in    
Wind  
Wind Speed 7 mph (SSE)    
Max Wind Speed 14 mph    
Max Gust Speed -    
Visibility 10 miles    
Events      
Averages and records for this station are not official NWS values.
T = Trace of Precipitation, MM = Missing Value Source: NWS Daily Summary

Daily Weather History Graph

Daily Weather History Graph

Search for Another Location

Airport or City:

Trip Planner

Search our weather history database for the weather conditions in past years. The results will help you decide how hot, cold, wet, or windy it might be!

Date:

Astronomy

Nov. 22, 2011 Rise Set
Actual Time 6:57 AM EST 5:36 PM EST
Civil Twilight 6:32 AM EST 6:01 PM EST
Nautical Twilight 6:03 AM EST 6:29 PM EST
Astronomical Twilight 5:35 AM EST 6:57 PM EST
Moon 3:57 AM EST (11/22) 3:26 PM EST (11/22)
Length of Visible Light 11h 28m
Length of Day
10h 38m
Waning Crescent, 9% of the Moon is Illuminated
Nov 22
Waning Crescent
Nov 25
New
Dec 2
First Quarter
Dec 10
Full
Dec 17
Last Quarter

Hourly Weather History & Observations

Time (EST) Temp. Heat Index Dew Point Humidity Pressure Visibility Wind Dir Wind Speed Gust Speed Precip Events Conditions
12:53 AM 73.0 °F - 69.1 °F 87% 30.15 in 10.0 mi ESE 8.1 mph - N/A   Partly Cloudy
1:53 AM 73.0 °F - 69.1 °F 87% 30.14 in 10.0 mi SE 10.4 mph - N/A   Overcast
2:44 AM 73.4 °F - 69.8 °F 88% 30.12 in 10.0 mi SSE 8.1 mph - N/A   Overcast
2:53 AM 73.0 °F - 70.0 °F 90% 30.12 in 10.0 mi SE 5.8 mph - N/A   Overcast
3:00 AM 73.4 °F - 69.8 °F 88% 30.12 in 10.0 mi SE 5.8 mph - N/A   Overcast
3:13 AM 73.4 °F - 69.8 °F 88% 30.12 in 10.0 mi ESE 6.9 mph - N/A   Overcast
3:32 AM 73.4 °F - 69.8 °F 88% 30.11 in 10.0 mi ESE 8.1 mph - N/A   Overcast
3:45 AM 71.6 °F - 69.8 °F 94% 30.11 in 10.0 mi ESE 6.9 mph - N/A   Overcast
3:53 AM 72.0 °F - 69.1 °F 91% 30.11 in 10.0 mi SE 6.9 mph - N/A   Overcast
4:53 AM 73.0 °F - 70.0 °F 90% 30.11 in 10.0 mi SE 5.8 mph - N/A   Overcast
5:53 AM 73.0 °F - 69.1 °F 87% 30.12 in 10.0 mi SSE 6.9 mph - N/A   Overcast
6:53 AM 73.0 °F - 69.1 °F 87% 30.14 in 10.0 mi SSE 5.8 mph - N/A   Overcast
7:53 AM 73.0 °F - 70.0 °F 90% 30.16 in 10.0 mi SE 3.5 mph - N/A   Mostly Cloudy
8:53 AM 73.9 °F - 70.0 °F 87% 30.17 in 10.0 mi ESE 4.6 mph - N/A   Scattered Clouds
9:53 AM 77.0 °F - 69.1 °F 76% 30.18 in 10.0 mi SSE 6.9 mph - N/A   Mostly Cloudy
10:53 AM 78.8 °F - 69.8 °F 74% 30.17 in 10.0 mi SSE 10.4 mph - N/A   Scattered Clouds
11:53 AM 80.1 °F 82.9 °F 69.1 °F 69% 30.14 in 10.0 mi ESE 12.7 mph - N/A   Mostly Cloudy
12:28 PM 80.6 °F 83.2 °F 68.0 °F 65% 30.13 in 10.0 mi SE 10.4 mph - N/A   Scattered Clouds
12:53 PM 82.9 °F 86.5 °F 69.1 °F 63% 30.12 in 10.0 mi ESE 6.9 mph - N/A   Mostly Cloudy
1:27 PM 80.6 °F 83.2 °F 68.0 °F 65% 30.11 in 10.0 mi SE 8.1 mph - N/A   Mostly Cloudy
1:53 PM 81.0 °F 83.8 °F 68.0 °F 65% 30.10 in 10.0 mi SE 8.1 mph - N/A   Scattered Clouds
2:53 PM 80.1 °F 82.3 °F 66.9 °F 64% 30.09 in 10.0 mi WSW 13.8 mph - N/A   Mostly Cloudy
3:53 PM 81.0 °F 83.3 °F 66.9 °F 62% 30.09 in 10.0 mi SW 9.2 mph - N/A   Partly Cloudy
4:53 PM 78.1 °F - 66.0 °F 66% 30.09 in 10.0 mi SW 9.2 mph - N/A   Clear
5:53 PM 75.0 °F - 64.9 °F 71% 30.10 in 10.0 mi SSW 10.4 mph - N/A   Clear
6:53 PM 73.4 °F - 66.2 °F 78% 30.11 in 10.0 mi SW 6.9 mph - N/A   Clear
7:53 PM 71.6 °F - 66.2 °F 83% 30.12 in 10.0 mi South 3.5 mph - N/A   Clear
8:53 PM 71.1 °F - 66.9 °F 87% 30.13 in 10.0 mi SE 3.5 mph - N/A   Clear
9:53 PM 70.0 °F - 66.0 °F 87% 30.13 in 10.0 mi South 3.5 mph - N/A   Clear
10:53 PM 70.0 °F - 66.0 °F 87% 30.14 in 10.0 mi Calm Calm - N/A   Clear
11:53 PM 68.0 °F - 66.0 °F 93% 30.12 in 10.0 mi Calm Calm - N/A   Clear